Change the Weather History Date:

Wednesday, October 1, 2014

  Actual Average Record
Temperature  
Mean Temperature 84 °F 72 °F  
Max Temperature 92 °F 84 °F 100 °F (1938)
Min Temperature 76 °F 61 °F 38 °F (1984)
Degree Days  
Heating Degree Days 0 1  
Month to date heating degree days 0 1  
Since 1 July heating degree days 0 5  
Cooling Degree Days 19 8  
Month to date cooling degree days 19 8  
Year to date cooling degree days 2749 2405  
Growing Degree Days 32 (Base 50)    
Moisture  
Dew Point 73 °F    
Average Humidity 73    
Maximum Humidity 94    
Minimum Humidity 52    
Precipitation  
Precipitation 0.05 in 0.11 in 0.85 in (1961)
Month to date precipitation 0.05 0.11  
Year to date precipitation 35.05 34.78  
Snow  
Snow 0.00 in - - ()
Month to date snowfall 0.0  
Since 1 July snowfall 0.0  
Since 1 September snowfall 0.0  
Snow Depth 0.00 in    
Sea Level Pressure  
Sea Level Pressure 29.83 in    
Wind  
Wind Speed 6 mph (ESE)    
Max Wind Speed 16 mph    
Max Gust Speed 18 mph    
Visibility 8 miles    
Events Fog , Rain , Thunderstorm    
T = Trace of Precipitation, MM = Missing Value Source: NWS Daily Summary

Daily Weather History Graph

Daily Weather History Graph

Search for Another Location

Airport or City:

Trip Planner

Search our weather history database for the weather conditions in past years. The results will help you decide how hot, cold, wet, or windy it might be!

Date:

Astronomy

Oct. 01, 2014 Rise Set
Actual Time 7:12 AM CDT 7:04 PM CDT
Civil Twilight 6:48 AM CDT 7:28 PM CDT
Nautical Twilight 6:20 AM CDT 7:56 PM CDT
Astronomical Twilight 5:52 AM CDT 8:24 PM CDT
Moon 1:58 PM CDT (10/1) No Moon Set
Length of Visible Light 12h 39m
Length of Day
11h 51m
Waxing Crescent, 49% of the Moon is Illuminated
Oct 1
Waxing Crescent
Oct 1
First Quarter
Oct 8
Full
Oct 15
Last Quarter
Oct 23
New

Hourly Weather History & Observations

Time (CDT) Temp. Heat Index Dew Point Humidity Pressure Visibility Wind Dir Wind Speed Gust Speed Precip Events Conditions
12:53 AM 77.0 °F - 72.0 °F 84% 29.81 in 9.0 mi SSE 5.8 mph - N/A   Overcast
1:19 AM 75.9 °F - 72.0 °F 87% 29.82 in 9.0 mi SSE 3.5 mph - N/A   Mostly Cloudy
1:42 AM 75.9 °F - 72.0 °F 87% 29.82 in 8.0 mi SE 4.6 mph - N/A   Overcast
1:53 AM 75.9 °F - 72.0 °F 87% 29.81 in 8.0 mi SE 3.5 mph - N/A   Overcast
2:08 AM 75.9 °F - 72.0 °F 87% 29.82 in 7.0 mi SE 4.6 mph - N/A   Overcast
2:35 AM 77.0 °F - 73.0 °F 88% 29.83 in 7.0 mi SSE 5.8 mph - N/A   Overcast
2:53 AM 72.0 °F - 68.0 °F 87% 29.88 in 6.0 mi Calm Calm - N/A   Clear
3:53 AM 77.0 °F - 73.4 °F 89% 29.82 in 5.0 mi East 3.5 mph - N/A   Overcast
4:48 AM 77.0 °F - 73.4 °F 89% 29.83 in 2.0 mi ENE 3.5 mph - N/A   Overcast
4:53 AM 77.0 °F - 73.0 °F 88% 29.82 in 1.8 mi ENE 3.5 mph - N/A   Overcast
5:40 AM 75.9 °F - 73.0 °F 91% 29.83 in 0.5 mi ESE 3.5 mph - N/A Fog Fog
5:53 AM 75.9 °F - 73.0 °F 91% 29.82 in 0.5 mi ESE 3.5 mph - N/A Fog Fog
7:42 AM 77.0 °F - 73.0 °F 88% 29.84 in 3.0 mi East 4.6 mph - N/A   Overcast
7:50 AM 77.0 °F - 73.4 °F 89% 29.84 in 1.8 mi East 3.5 mph - 0.01 in Rain Light Rain
7:53 AM 77.0 °F - 73.9 °F 90% 29.83 in 1.2 mi ESE 3.5 mph - 0.03 in Rain Light Rain
8:10 AM 77.0 °F - 73.9 °F 90% 29.85 in 2.5 mi ESE 5.8 mph - 0.02 in Rain Light Rain
8:39 AM 77.0 °F - 73.0 °F 88% 29.85 in 5.0 mi SE 4.6 mph - 0.02 in   Scattered Clouds
8:53 AM 77.0 °F - 73.0 °F 88% 29.85 in 6.0 mi ESE 6.9 mph - 0.02 in   Mostly Cloudy
9:16 AM 77.0 °F - 73.0 °F 88% 29.86 in 10.0 mi ESE 6.9 mph - N/A   Mostly Cloudy
9:53 AM 78.1 °F - 73.9 °F 87% 29.86 in 10.0 mi SE 5.8 mph - N/A   Mostly Cloudy
10:01 AM 81.0 °F 87.3 °F 75.9 °F 85% 29.87 in 10.0 mi SE 6.9 mph - N/A   Overcast
10:20 AM 82.0 °F 87.9 °F 73.9 °F 76% 29.87 in 10.0 mi SSE 6.9 mph - N/A   Mostly Cloudy
10:29 AM 82.9 °F 89.4 °F 73.9 °F 74% 29.87 in 10.0 mi SSE 5.8 mph - N/A   Mostly Cloudy
10:53 AM 82.0 °F 87.9 °F 73.9 °F 76% 29.86 in 10.0 mi SE 6.9 mph - N/A   Mostly Cloudy
11:10 AM 84.0 °F 91.9 °F 75.0 °F 74% 29.88 in 10.0 mi ESE 9.2 mph - N/A   Mostly Cloudy
11:18 AM 84.0 °F 91.9 °F 75.0 °F 74% 29.87 in 10.0 mi East 6.9 mph - N/A   Scattered Clouds
11:51 AM 86.0 °F 93.4 °F 73.4 °F 66% 29.87 in 10.0 mi SE 8.1 mph - N/A   Mostly Cloudy
11:53 AM 87.1 °F 95.4 °F 73.9 °F 65% 29.85 in 10.0 mi SE 6.9 mph - N/A   Scattered Clouds
12:53 PM 88.0 °F 95.6 °F 73.0 °F 61% 29.83 in 10.0 mi East 5.8 mph - N/A   Scattered Clouds
1:53 PM 91.9 °F 98.4 °F 71.1 °F 50% 29.80 in 10.0 mi ESE 6.9 mph - N/A   Scattered Clouds
2:53 PM 89.1 °F 96.0 °F 72.0 °F 57% 29.79 in 10.0 mi SE 4.6 mph - N/A   Mostly Cloudy
3:53 PM 89.1 °F 98.0 °F 73.9 °F 61% 29.78 in 10.0 mi SSE 6.9 mph - 0.00 in   Overcast
4:18 PM 90.0 °F 100.2 °F 75.0 °F 61% 29.79 in 10.0 mi East 11.5 mph - 0.00 in Thunderstorm Thunderstorm
4:33 PM 84.9 °F 94.1 °F 75.9 °F 74% 29.80 in 10.0 mi SE 11.5 mph - 0.00 in Rain Light Rain
4:53 PM 86.0 °F 93.8 °F 73.9 °F 67% 29.78 in 10.0 mi ESE 12.7 mph - 0.00 in Thunderstorm Thunderstorm
5:07 PM 86.0 °F 93.0 °F 73.0 °F 65% 29.79 in 10.0 mi East 8.1 mph - N/A   Clear
5:53 PM 86.0 °F 93.8 °F 73.9 °F 67% 29.78 in 10.0 mi ESE 8.1 mph - N/A   Clear
6:53 PM 82.9 °F 89.4 °F 73.9 °F 74% 29.79 in 10.0 mi ESE 6.9 mph - N/A   Clear
7:53 PM 81.0 °F 86.2 °F 73.9 °F 79% 29.81 in 10.0 mi SE 5.8 mph - N/A   Clear
8:53 PM 80.1 °F 84.5 °F 73.9 °F 81% 29.83 in 10.0 mi SE 6.9 mph - N/A   Clear
9:53 PM 80.1 °F 84.5 °F 73.9 °F 81% 29.84 in 10.0 mi SE 5.8 mph - N/A   Clear
10:53 PM 79.0 °F - 73.9 °F 84% 29.84 in 10.0 mi SE 6.9 mph - N/A   Clear
11:53 PM 78.1 °F - 73.0 °F 84% 29.84 in 10.0 mi SSE 8.1 mph - N/A   Clear